Weather in Beloyarskiy

Russia / Sverdlovsk Oblast     56°45′07″N   61°24′08″E
temp.,
°C
wind,
m/s
gust,
m/s
humid.,
%
clouds,
%
prec.,
mm/h
press.,
hPa
HPBL,
m
15 april, thu
thu1523:00+11w2385100 0.0 102745
02:00+9w238990 0.0 102646
05:00+8wsw238868 0.0 102653
08:00+11wsw387935 0.0 1025223
11:00+16w475535 0.0 1023816
14:00+19wsw573150 0.0 10211199
17:00+19w58365 0.0 10201240
20:00+13wsw395958 0.0 1020220
16 april, fri
fri1623:00+11w312760 0.0 1019308
02:00+9w3128493 0.0 1019278
05:00+6nne51088100 0.0 1021468
08:00+3nne51095100 0.1 1025631
11:00+6ne466399 0.1 10261046
14:00+9ne44435 0.0 10261380
17:00+9ene33385 0.0 10261548
20:00+5ene22530 0.0 102634
17 april, sat
sat1723:00+3ene22615 0.0 102718
02:00+2nne11645 0.0 102610
05:00+1wnw22675 0.0 102611
08:00+3nnw35605 0.0 1027272
11:00+7n22440 0.0 10271037
14:00+9nnw22365 0.0 10251685
17:00+10wnw243556 0.0 10241987
20:00+7wsw224995 0.0 102218
18 april, sun
sun1823:00+4nw397026 0.0 1021240
02:00+3wnw4117336 0.0 1020506
05:00+2w513765 0.0 1018573
08:00+4nw6127152 0.0 10171049
11:00+1n597161 0.6 1020978
14:00+3n6941100 0.0 10222307
17:00+2nne6840100 0.1 10262205
20:00−1nne48485 0.1 1029916
19 april, mon
mon1923:00−2nne38495 0.1 1031631
02:00−3nne26510 0.0 1033501
05:00−4nne26550 0.0 1035522
08:00−3nne46405 0.0 10361379
11:000nne353122 0.0 10361804
14:00+2n352997 0.0 10342174
17:00+3n353099 0.0 10342200
20:00−1n11465 0.0 103410